Regional Weather Roundup
Issued by NWS

Home | Current Version | Previous Version | Graphics & Text | Print | Product List | Glossary On
Versions: 1 2 3 4 5 6 7 8 9 10 11 12 13 14 15 16 17 18 19 20 21 22 23 24 25 26 27 28 29 30 31 32 33 34 35 36 37 38 39 40 41
000
ASUS45 KBOU 220210
RWRCO

WEATHER ROUNDUP FOR COLORADO
NATIONAL WEATHER SERVICE DENVER/BOULDER CO
700 PM MST WED FEB 21 2018

NOTE: "FAIR" INDICATES FEW OR NO CLOUDS BELOW 12000 FEET WITH NO
SIGNIFICANT WEATHER AND/OR OBSTRUCTIONS TO VISIBILITY.

COZ001>005-013-030-031-220300-
...NORTHWEST COLORADO...

CITY           SKY/WX    TMP DP  RH WIND       PRES   REMARKS
CRAIG          CLOUDY    19  11  70 NW6       30.06R WCI  11
HAYDEN         FAIR      17   7  64 CALM      30.06R
MEEKER         CLOUDY    25  14  63 CALM      30.02R
RANGELY        CLOUDY    24  15  68 CALM      30.07S
RABBIT EARS PA CLOUDY     9   3  78 SW3       29.92R
STEAMBOAT SPGS CLOUDY    18   2  49 CALM      30.02S
WALDEN         CLOUDY    14   1  57 CALM      30.00S
$$

COZ006>008-011-220300-
...WEST CENTRAL VALLEYS...

CITY           SKY/WX    TMP DP  RH WIND       PRES   REMARKS
GRAND JUNCTION CLOUDY    33  14  45 CALM      30.03S
MONTROSE       CLOUDY    30  16  56 NW5       30.02F WCI  25
EAGLE          CLOUDY    28  13  53 CALM      30.02R
RIFLE          CLOUDY    29  15  56 S5        30.04S WCI  24
DELTA          CLOUDY    36  11  36 W7        30.02S
NUCLA          CLOUDY    32  21  64 NW9       30.03R WCI  24
$$

COZ017>023-064>068-220300-
...SOUTHWEST COLORADO...

CITY           SKY/WX    TMP DP  RH WIND       PRES   REMARKS
DURANGO        MOCLDY    30  24  78 E9        29.98F WCI  22
CORTEZ         CLOUDY    35  22  58 S6        29.98R WCI  30
PAGOSA SPRINGS LGT SNOW  27  25  89 CALM      30.00F
TELLURIDE      MOCLDY    24   9  51 S10G16    29.95F WCI  14
WOLF CREEK PAS CLOUDY    10  10 100 S10       29.98S WCI  -3
$$

COZ009-010-012-014-032>034-037-058>063-220300-
...CENTRAL COLORADO...

CITY           SKY/WX    TMP DP  RH WIND       PRES   REMARKS
ASPEN          CLOUDY    19   9  65 CALM      29.97R
BUENA VISTA    FAIR      26   7  43 SE7       29.96R WCI  19
COPPER MTN     CLOUDY    14   0  52 S10       29.91R WCI   1
BERTHOUD PASS  CLOUDY     3  -8  60 SE18G24   29.89S HAZE    WCI -17
COTTONWOOD PAS FAIR      28   1  31 W5G24     29.95R WCI  23
GUNNISON       CLOUDY    24  13  62 S3        29.97S
GRANBY         CLOUDY    18   6  58 CALM      29.99S
KREMMLING      FAIR      21  10  63 CALM      30.01S
LEADVILLE      MOCLDY    16   3  56 S7        29.92R WCI   6
MONARCH PASS   FAIR      10   3  72 SW21      30.02F WCI  -9
SALIDA         FAIR      26  11  54 SE14G21   30.07R WCI  14
SUNLIGHT       LGT SNOW   9   5  85 SW10G16   29.96S WCI  -6
WILKERSON PASS FAIR      12   3  67 SW8G17    29.96R WCI   1
$$

COZ069>075-220300-
...SAN LUIS VALLEY/SANGRE DE CRISTO MOUNTAINS...

CITY           SKY/WX    TMP DP  RH WIND       PRES   REMARKS
ALAMOSA        MOCLDY    27  13  55 S6        29.97S WCI  20
DEL NORTE      CLOUDY    28  14  55 SW7       29.98R WCI  21
LA VETA PASS   CLOUDY    14  10  85 SE7       30.09F WCI   4
SAGUACHE       NOT AVBL
$$

COZ035-036-038>040-220300-
...NORTHERN COLORADO FRONT RANGE...

CITY           SKY/WX    TMP DP  RH WIND       PRES   REMARKS
DENVER INTL AP FAIR      13   8  81 W5        30.12R WCI   5
AURORA         PTCLDY    11   9  88 CALM      30.12R
FRONT RANGE AP NOT AVBL
ERIE MUNI ARPT FAIR      10   7  87 CALM      30.20R
BOULDER MUN AP FAIR      16  12  86 W3        30.14R
CENTENNIAL     FAIR      16   9  74 NE3       30.10R
BROOMFIELD     PTCLDY    14  10  85 N3        30.12
FORT COLLINS   FAIR      13   9  84 N7        30.15R WCI   3
LONGMONT       FAIR      13   6  75 SW3       30.17R
$$

COZ041-046-047-076>085-087-088-220300-
...PIKES PEAK/PALMER DIVIDE AND SOUTHERN FOOTHILLS...

CITY           SKY/WX    TMP DP  RH WIND       PRES   REMARKS
COLO. SPRINGS  FAIR      18   9  68 SE9       30.10R WCI   7
A. F. ACADEMY  FAIR      17   7  65 S10       30.06S WCI   5
SCHRIEVER AFB  NOT AVBL
CHEYENNE MTN   FAIR      15  10  77 S9        30.01R WCI   4
ELLICOTT         N/A    N/A N/A N/A SE12      30.09R
FALCON         FAIR      15   8  72 S6        30.08R WCI   6
FORT CARSON    FAIR      19  10  66 S6        30.10R WCI  11
LIMON          FAIR      15  10  80 S14       30.14R WCI   0
MONUMENT HILL  FAIR      12   5  73 S5        30.06R WCI   4
CANON CITY     CLEAR     25  12  58 E9        30.12R WCI  15
WALSENBURG     NOT AVBL
TRINIDAD       FAIR      23   8  52 N8        30.08R WCI  14
$$

COZ042>045-048>051-090-091-220300-
...NORTHEAST COLORADO...

CITY           SKY/WX    TMP DP  RH WIND       PRES   REMARKS
GREELEY ARPT   FAIR       9   4  80 NW7       30.16S WCI  -2
AKRON          FAIR      18  10  71 SE12      30.18R WCI   5
BURLINGTON     CLOUDY    20  16  84 SE13      30.23R WCI   7
WRAY           CLOUDY    27  12  54 SE13      30.27S WCI  16
YUMA           CLOUDY    23  10  58 SE9       30.22S WCI  13
STERLING       FAIR      23  12  63 SE9       30.20S WCI  13
HOLYOKE        FAIR      21  12  68 SE9       30.27S WCI  11
FORT MORGAN    FAIR      22  10  59 SE13G18   30.17S WCI  10
$$

COZ086-089-092>099-220300-
...SOUTHEAST COLORADO...

CITY           SKY/WX    TMP DP  RH WIND       PRES   REMARKS
PUEBLO         FAIR      24   8  50 E10       30.16R WCI  14
LA JUNTA       FAIR      23  15  71 E14       30.18R WCI  11
LAMAR          CLOUDY    24  12  60 SE13      30.22R WCI  12
SPRINGFIELD      N/A     19  15  84 SE10      30.20S WCI   7
$$




USA.gov is the U.S. government's official web portal to all federal, state and local government web resources and services.